Tracking 29892 objects as of 21-Nov-2024
HD Live streaming from Space Station
objects crossing your sky now

STARLINK-1959

Track STARLINK-1959 now!
10-day predictions
STARLINK-1959 is classified as:


NORAD ID: 47560
Int'l Code: 2021-009N
Perigee: 553.2 km
Apogee: 555.6 km
Inclination: 53.1 °
Period: 95.6 minutes
Semi major axis: 6925 km
RCS: Unknown
Launch date: February 4, 2021
Source: United States (US)
Launch site: AIR FORCE EASTERN TEST RANGE (AFETR)
Your satellite tracking list
Your tracking list is empty




NASA's NSSDC Master Catalog

Two Line Element Set (TLE):
1 47560U 21009N   24325.42361614  .00006717  00000-0  46952-3 0  9997
2 47560  53.0541 330.6707 0001765  84.6918 275.4273 15.06390656209599
Source of the keplerian elements: AFSPC